Regional Weather Roundup
Issued by NWS Sioux Falls, SD

Home | Current Version | Previous Version | Text Only | Print | Product List | Glossary Off
Versions: 1 2 3 4 5 6 7 8 9 10 11 12 13 14 15 16 17 18 19 20 21 22 23 24 25 26 27 28 29 30 31 32 33 34 35 36 37 38 39 40 41 42 43 44 45 46 47 48 49 50

000
ASUS43 KFSD 240102
RWRFSD

WEATHER ROUNDUP FOR SE SOUTH DAKOTA/SW MINNESOTA/NW IOWA
NATIONAL WEATHER SERVICE SIOUX FALLS SD
800 PM CDT WED AUG 23 2017

NOTE: "FAIR" INDICATES FEW OR NO CLOUDS BELOW 12,000 FEET WITH NO
SIGNIFICANT WEATHER AND OR OBSTRUCTIONS TO VISIBILITY.


SDZ038>040-050-052>070-240200-
SOUTHEAST SOUTH DAKOTA

CITY           SKY/WX    TMP DP  RH WIND       PRES   REMARKS
BROOKINGS      MOCLDY    71  60  68 SE9       30.00S
CHAMBERLAIN    CLEAR     81  67  61 E6        29.87F
HURON          CLEAR     74  62  66 SE10      29.92F
MADISON        MOCLDY    68  68 100 S10       29.99F
MITCHELL       CLEAR     76  62  62 SE12      29.93F
SIOUX FALLS    MOCLDY    72  62  71 SE9       30.00S
WINNER         FAIR      83  66  56 S10       29.88F
YANKTON        MOCLDY    74  62  66 SE9       29.97S
$$

MNZ071-072-080-081-089-090-097-098-240200-
SOUTHWEST MINNESOTA

CITY           SKY/WX    TMP DP  RH WIND       PRES   REMARKS
FAIRMONT       CLOUDY    69  60  73 S3        30.03F
JACKSON        MOCLDY    66  59  77 CALM      30.04S
LUVERNE        MOCLDY    68  59  73 CALM      30.02S
MARSHALL       MOCLDY    71  57  61 SE7       30.01S
MONTEVIDEO     CLEAR     68  55  64 CALM      30.00F
PIPESTONE      CLOUDY    72  61  68 S5        30.02S
REDWOOD FALLS  CLOUDY    69  55  60 SE6       30.01F
TRACY          CLOUDY    70  62  74 CALM      30.02S
WINDOM         CLEAR     70  57  64 SE3       30.03S
WORTHINGTON    CLOUDY    68  61  78 SE3       30.03S
$$

IAZ001>003-012>014-020>022-031-032-NEZ013-014-SDZ071-240200-
NORTHWEST IOWA

CITY           SKY/WX    TMP DP  RH WIND       PRES   REMARKS
CHEROKEE       PTCLDY    70  60  70 CALM      30.02S
DENISON        PTCLDY    70  59  68 S7        30.05S
ESTHERVILLE    PTCLDY    67  60  78 E5        30.02F
ORANGE CITY    PTCLDY    73  63  68 SE3       30.01F
SHELDON        MOCLDY    66  64  94 CALM      30.01R
SIOUX CITY     PTCLDY    73  61  65 S8        29.99F
SPENCER        MOCLDY    69  60  73 S6        30.02F
STORM LAKE     CLEAR     66  61  82 S6        30.04S
$$

ABBREVIATIONS USED IN REMARKS
   TC - TEMPERATURE IN CELSIUS
  WCI - WIND CHILL INDEX
   HX - HEAT INDEX
  VSB - VISIBILITY





USA.gov is the U.S. government's official web portal to all federal, state and local government web resources and services.